Location: Fort Worth, Tx
(32.7431°N, 97.3695°W)
Time: 02:49:52
(UTC-04:00)

Vanguard 3 - Pass Details

Date: 29 February 2024
Orbit: 510 x 3234 km, 33.3° (Epoch: 24 April)

Event Time Altitude Azimuth Distance (km) Brightness Sun altitude
Rises 01:15:34 0° 282° (WNW) 7,195 12.1 -64.3°
Reaches altitude 10° 01:20:28 10° 282° (WNW) 6,161 11.7 -64.5°
Enters shadow 01:26:45 26° 280° (W) 4,819 10.9 -64.8°
